^^
Meteo Knjazevac Station Historical Data
Daily Summary for March 18, 2021 Units:  Metric    English   Both
Daily Weekly Monthly Yearly Custom
  High: Low: Average:
Temperature: 13 °C 11.4 °C 12.4 °C
Dew Point: 12.7 °C 9.9 °C 11.4 °C
Humidity: 99% 88% 94%
Wind Speed: 11.3km/h 0km/h 4.2km/h
Wind Gust: 20.9km/h - -
Wind- - WSW
Pressure: 1012.4 hPa 1011.4 hPa -
Precipitation: 0 mm    
Historical Graphs
 
 
Tabular Data for March 18, 2021
Time Temperature Dew Point Pressure Wind Wind Speed Wind Gust Humidity Rainfall Rate (Hourly) solar Conditions
00:00 13 °C 12.7 °C 1011.4 hPa Calm   4.8 km/h 98% 0 mm 0 W/m2
00:10 13 °C 12.7 °C 1011.4 hPa ENE 1.6 km/h 3.2 km/h 98% 0 mm 0 W/m2
00:20 12.9 °C 12.7 °C 1011.4 hPa SW 3.2 km/h 6.4 km/h 99% 0 mm 0 W/m2
00:30 12.8 °C 12.7 °C 1011.4 hPa West 1.6 km/h 6.4 km/h 99% 0 mm 0 W/m2
00:40 12.8 °C 12.6 °C 1011.4 hPa WNW 1.6 km/h 6.4 km/h 99% 0 mm 0 W/m2
00:50 12.7 °C 12.6 °C 1011.4 hPa West 3.2 km/h 4.8 km/h 99% 0 mm 0 W/m2
01:00 12.7 °C 12.6 °C 1011.7 hPa WSW 4.8 km/h 11.3 km/h 99% 0 mm 0 W/m2
01:10 12.8 °C 12.2 °C 1011.4 hPa WNW 4.8 km/h 14.5 km/h 96% 0 mm 0 W/m2
01:20 12.7 °C 12.1 °C 1011.4 hPa West 1.6 km/h 9.7 km/h 96% 0 mm 0 W/m2
01:30 12.6 °C 12 °C 1011.4 hPa WNW 3.2 km/h 8 km/h 96% 0 mm 0 W/m2
01:40 12.6 °C 11.8 °C 1011.4 hPa West 3.2 km/h 9.7 km/h 95% 0 mm 0 W/m2
01:50 12.5 °C 11.6 °C 1011.4 hPa WSW 3.2 km/h 11.3 km/h 94% 0 mm 0 W/m2
02:00 12.4 °C 11.6 °C 1011.7 hPa WSW 3.2 km/h 9.7 km/h 95% 0 mm 0 W/m2
02:10 12.4 °C 11.4 °C 1011.4 hPa WSW 4.8 km/h 8 km/h 94% 0 mm 0 W/m2
02:20 12.2 °C 10.9 °C 1011.7 hPa West 11.3 km/h 20.9 km/h 92% 0 mm 0 W/m2
02:30 12.3 °C 10.9 °C 1012.1 hPa West 4.8 km/h 20.9 km/h 91% 0 mm 0 W/m2
02:40 12.2 °C 10.6 °C 1012.1 hPa West 8 km/h 14.5 km/h 90% 0 mm 0 W/m2
02:50 12.1 °C 10.5 °C 1012.1 hPa WSW 9.7 km/h 14.5 km/h 90% 0 mm 0 W/m2
03:00 12.1 °C 10.3 °C 1012.4 hPa WSW 9.7 km/h 16.1 km/h 89% 0 mm 0 W/m2
03:10 12 °C 10.2 °C 1012.4 hPa WSW 4.8 km/h 14.5 km/h 89% 0 mm 0 W/m2
03:20 11.9 °C 10.1 °C 1012.4 hPa WSW 4.8 km/h 12.9 km/h 88% 0 mm 0 W/m2
03:30 11.9 °C 10 °C 1012.4 hPa West 1.6 km/h 11.3 km/h 88% 0 mm 0 W/m2
03:40 11.8 °C 10.1 °C 1012.4 hPa WNW 1.6 km/h 4.8 km/h 89% 0 mm 0 W/m2
03:50 11.6 °C 10 °C 1012.4 hPa WSW 3.2 km/h 8 km/h 90% 0 mm 0 W/m2
04:00 11.4 °C 9.9 °C 1012.4 hPa WSW 4.8 km/h 11.3 km/h 90% 0 mm 0 W/m2
Knjazevac, Serbia
Compliments of Weather Underground - 2 mb